SCP
0 0 0 0 0 0 0 0 0 0 0 0 0 0 0 0 0 0 0 0 0 0 0 0 0 0 0 0 0 0 0 0 0 0 0 0 0 0 0 0 0 0 0 0
0 0 0 0 0 0 0 0 0 0 0 0 0 0 0 0 0 0 0 0 0 0 0 0 0 0 0 0 0 0 0 0 0 0 0 0 0 0 0 0 0 0 0 0
0 0 0 0 0 0 0 0 0 0 0 0 0 0 0 0 0 0 0 0 0 0 0 0 0 0 0 0 0 0 0 0 0 0 0 0 0 0 0 0 0 0 0 0
0 0 0 0 0 0 0 0 0 0 0 0 0 0 0 0 0 0 0 0 0 0 0 0 0 0 0 0 0 0 0 0 0 0 0 0 0 0 0 0 0 0 0 0
0 0 0 0 0 0 0 0 0 0 0 0 0 0 0 0 0 0 0 0 0 0 0 0 0 0 0 0 0 0 0 0 0 0 0 0 0 0 0 0 0 0 0 0
0 0 0 0 0 0 0 0 0 0 0 0 0 0 0 0 0 0 0 0 0 0 0 0 0 0 0 0 0 0 0 0 0 0 0 0 0 0 0 0 0 0 0 0
0 0 0 0 0 0 0 0 0 0 0 0 0 0 0 0 0 0 0 0 0 0 0 0 0 0 0 0 0 0 0 0 0 0 0 0 0 0 0 0 0 0 0 0
0 0 0 0 0 0 0 0 0 0 0 0 0 0 0 0 0 0 0 0 0 0 0 0 0 0 0 0 0 0 0 0 0 0 0 0 0 0 0 0 0 0 0 0
0 0 0 0 0 0 0 0 0 0 -0 -0 0 0 0 0 0 0 0 0 0 0 0 0 0 0 0 0 0 0 0 0 0 0 0 0 0 0 0 0 0 0 0 0
0 0 0 0 0 0 0 0 0 0 0 0 0 0 0 0 0 0 0 0 0 0 0 0 0 0 0 0 0 0 0 0 0 0 0 0 0 0 0 0 0 0 0 0
0 0 0 0 0 0 0 0 0 0 0 0 0 0 0 0 0 0 0 0 0 0 0 0 0 0 0 0 0 0 0 0 0 0 0 0 0 0 0 0 0 0 0 0
0 0 0 0 0 0 0 0 0 0 0 0 0 0 0 0 0 0 0 0 0 0 0 0 0 0 0 0 0 0 0 0 0 0 0 0 0 0 0 0 0 0 0 0
0 0 0 0 0 0 0 0 0 0 0 0 0 0 0 0 0 0 0 0 0 0 0 0 0 0 0 0 0 0 0 0 0 0 0 0 0 0 0 0 0 0 0 0
0 0 0 0 0 0 0 0 0 0 0 0 0 0 0 0 0 0 0 0 0 0 0 0 0 0 0 0 0 0 0 0 0 0 0 0 0 0 0 0 0 0 0 0
0 0 0 0 0 0 0 0 0 0 0 0 0 0 0 0 0 0 0 0 0 0 0 0 0 0 0 0 0 0 0 0 0 0 0 0 0 0 0 0 0 0 0 0
0 -0 0 0 0 0 0 0 0 0 0 0 0 0 0 0 0 0 0 0 0 0 0 0 0 0 0 0 0 0 0 0 0 0 0 0 0 0 0 0 0 0 0 0
-0 0 0 0 0 0 0 0 0 0 0 0 0 0 0 0 0 0 0 0 0 0 0 0 0 0 0 0 0 0 0 0 0 0 0 0 0 0 0 0 0 0 0 0
-0 -0 -0 -0 0 0 0 0 0 0 0 0 0 0 0 0 0 0 0 0 0 0 0 0 0 0 0 0 0 0 0 0 0 0 0 0 0 0 0 0 0 0 0 0
-0 -0 0 0 0 -0 -0 0 0 0 0 0 0 0 0 0 0 0 0 0 0 0 0 0 0 0 0 0 0 0 0 0 0 0 0 0 0 0 0 0 0 0 0 0
-0 -0 -0 -0 -0 -0 -0 -0 -0 0 0 0 0 0 0 0 0 0 0 0 0 0 0 0 0 0 0 0 0 0 0 0 0 0 0 0 0 0 0 0 0 0 0 0
-0 -0 -0 -0 -0 -0 -0 -0 0 0 0 0 0 0 0 0 0 0 0 0 0 0 0 0 0 0 0 0 0 0 0 0 0 0 0 0 0 0 0 0 0 0 0 0
-0 -0 -0 -0 0 0 0 0 0 0 0 0 0 0 0 0 0 0 0 0 0 0 0 0 0 0 0 0 0 0 0 0 0 0 0 0 0 0 0 0 0 0 0 0
0 0 0 0 0 0 0 0 0 0 0 0 0 0 0 0 0 0 0 0 0 0 0 0 0 0 0 0 0 0 0 0 0 0 0 0 0 0 0 0 0 0 0 0
0 0 0 0 0 0 0 0 0 0 0 0 0 0 0 0 0 0 0 0 0 0 0 0 0 0 0 0 0 0 0 0 0 0 0 0 0 0 0 0 0 0 0 0
0 0 0 0 0 0 0 0 0 0 0 0 0 0 0 0 0 0 0 0 0 0 0 0 0 0 0 0 0 0 0 0 0 0 0 0 0 0 0 0 0 0 0 0
0 0 0 0 0 0 0 0 0 0 0 0 0 0 0 0 0 0 0 0 0 0 0 0 0 0 0 0 0 0 0 0 0 0 0 0 0 0 0 0 0 0 0 0
0 0 0 0 0 0 0 0 0 0 0 0 0 0 0 0 0 0 0 0 0 0 0 0 0 0 0 0 0 0 0 0 0 0 0 0 0 0 0 0 0 0 0 0
Wind_Speed_500mb
3 1 7 4 23 32 31 37 20 23 27 3 7 10 17 24 34 42 41 42 40 34 27 22 19 19 20 21 21 22 24 26 27 28 31 34 34 35 34 33 32 30 29 32
6 4 7 9 18 31 39 37 35 4 8 4 7 13 22 30 33 36 41 42 37 32 27 23 23 24 26 27 28 27 27 26 27 29 31 32 35 37 37 36 34 35 33 32
4 1 4 13 22 26 25 26 32 31 14 7 10 9 14 26 37 35 38 38 36 31 26 24 21 20 22 25 28 30 30 30 29 29 30 32 33 36 37 38 39 39 38 39
5 5 9 5 3 3 25 2 16 12 4 1 6 7 10 24 41 38 38 37 34 30 26 23 19 20 23 23 24 25 27 28 29 29 30 32 33 35 36 38 40 42 43 43
7 10 6 4 5 6 3 3 8 12 9 7 1 2 14 29 31 43 42 38 33 28 23 19 18 18 18 18 18 19 21 23 25 27 27 28 29 31 34 36 38 41 43 44
4 7 4 6 9 9 6 2 12 6 13 9 18 12 6 23 33 41 39 34 30 23 17 15 15 14 14 14 15 15 18 21 22 23 23 24 25 27 28 31 32 35 37 39
1 4 7 8 9 8 2 7 6 6 14 16 10 2 15 29 34 37 35 30 22 16 14 13 12 11 12 13 14 15 17 18 19 21 20 20 21 23 24 26 27 28 31 31
0 3 5 2 2 6 5 3 4 3 8 15 8 18 24 29 32 31 26 23 20 18 15 12 10 10 10 11 13 14 15 16 17 17 18 18 19 21 21 22 23 23 24 23
9 7 2 4 2 6 4 6 10 9 7 13 15 16 23 24 24 23 21 19 18 16 14 11 9 6 7 8 10 13 14 14 14 16 17 17 17 18 19 19 19 19 19 19
6 6 10 11 6 12 16 12 12 9 2 10 9 18 19 22 23 23 21 19 16 13 10 7 4 3 3 4 7 10 13 14 14 15 17 18 18 18 19 19 19 18 17 18
3 7 5 17 21 25 19 13 11 8 5 9 10 15 17 23 24 23 22 19 16 12 8 5 2 2 3 4 6 9 11 13 13 14 16 16 17 19 19 19 20 20 18 19
5 15 12 11 29 28 25 22 14 12 9 11 12 17 22 24 24 23 21 19 16 13 9 6 1 2 4 5 8 10 11 12 14 15 16 16 17 17 19 19 19 20 20 21
12 33 28 25 15 22 23 21 16 12 13 11 13 18 24 29 28 27 25 21 15 10 7 5 2 3 7 6 8 10 12 14 15 16 18 19 19 21 21 21 22 21 22 22
10 21 5 10 16 29 20 17 10 10 12 12 13 19 23 24 25 24 19 14 11 9 6 6 7 7 7 10 12 14 17 18 20 21 22 24 25 26 27 29 28 26 27 30
13 33 30 31 22 20 16 13 7 6 9 11 12 16 21 21 21 19 15 12 10 9 9 9 9 11 15 19 23 25 27 29 31 32 32 33 34 35 36 37 38 39 37 34
29 17 14 12 17 17 15 11 6 6 7 10 12 17 20 21 21 18 14 11 11 11 13 16 18 22 26 28 32 35 37 38 41 43 45 44 44 45 46 47 49 49 49 47
12 14 24 27 27 20 14 8 4 5 8 9 12 15 19 20 17 15 12 13 14 16 20 27 28 33 36 37 41 44 46 49 51 52 54 54 55 55 56 58 59 60 60 57
15 13 19 21 25 23 14 6 2 1 1 3 8 11 14 12 12 13 14 18 21 24 26 31 39 45 44 45 48 52 56 58 60 61 60 62 64 65 66 68 70 72 71 69
17 18 20 20 20 18 16 14 12 8 6 3 5 7 8 10 14 18 24 27 32 37 39 43 48 51 53 55 57 59 61 62 63 65 67 71 73 74 76 78 79 80 80 80
27 28 29 29 28 26 22 18 15 11 7 5 4 7 11 16 22 28 35 41 44 47 51 55 58 59 59 59 60 61 64 68 72 76 78 81 84 87 88 89 90 89 88 86
29 29 28 28 27 25 22 20 17 15 13 13 15 19 25 28 34 42 48 53 56 58 59 62 62 59 59 63 69 73 75 77 78 78 80 82 85 87 90 91 90 88 88 87
18 17 18 19 19 19 19 19 20 22 23 24 27 32 37 40 44 48 50 55 58 61 63 65 65 67 70 71 71 70 68 67 65 64 66 68 71 76 80 80 80 79 77 75
12 14 16 17 18 19 21 23 25 28 31 35 40 44 48 52 55 58 64 59 60 61 66 67 63 61 59 59 56 54 53 54 56 57 59 61 64 66 67 68 67 66 65 65
14 15 15 17 22 25 27 31 37 42 46 49 51 55 58 61 60 57 55 57 57 55 54 49 48 49 50 50 50 51 51 53 56 59 61 61 61 60 60 58 57 54 53 52
15 14 18 23 27 31 37 42 47 51 53 53 52 51 50 49 49 47 45 45 44 45 46 44 44 45 49 52 56 60 63 65 66 67 67 68 68 67 66 63 60 56 55 55
16 19 25 31 36 42 47 51 53 54 56 54 45 40 37 37 39 41 41 41 43 45 48 51 54 57 60 62 64 65 66 66 66 65 64 64 63 62 62 60 58 56 54 51
20 26 32 39 45 49 51 53 54 51 45 42 39 35 35 34 35 39 44 49 53 56 58 58 60 60 61 61 61 59 59 58 55 54 53 53 52 51 49 47 45 42 39 38
Wind_Direction_500mb
106 25 309 289 210 198 212 220 209 242 229 117 128 182 172 158 155 163 174 180 180 182 186 198 217 232 240 247 251 257 259 258 257 258 258 257 258 261 262 263 266 264 266 271
215 177 235 241 231 206 212 228 238 98 282 70 87 113 154 177 175 179 185 185 185 190 199 218 234 244 251 255 257 260 264 265 263 262 261 260 256 256 259 262 264 264 263 263
169 168 203 259 235 201 219 231 231 230 224 158 177 146 186 191 187 191 189 190 193 203 215 226 234 244 255 259 262 263 266 267 267 266 263 261 260 261 262 262 262 264 264 265
96 196 232 34 307 345 226 117 267 267 116 290 347 332 241 207 199 191 196 195 196 205 209 216 234 253 262 265 265 266 268 270 270 269 267 266 266 266 265 265 266 267 266 264
213 209 345 134 52 50 169 146 357 288 241 182 239 318 270 234 208 208 196 195 198 198 207 229 250 256 261 263 264 266 270 273 275 276 273 272 272 271 271 270 270 270 270 270
196 239 215 14 23 43 302 345 352 357 304 192 157 209 132 181 189 191 192 190 189 194 213 233 238 246 253 257 265 270 277 282 284 284 283 281 279 277 276 276 276 275 275 274
286 357 76 19 49 43 91 22 355 330 288 263 212 7 136 157 154 164 172 175 181 193 201 213 224 238 246 258 265 278 284 287 288 288 290 290 289 287 286 285 285 282 281 279
333 227 105 100 168 321 349 327 309 288 231 184 125 119 141 149 153 160 168 171 177 186 190 202 222 235 254 268 287 292 293 292 293 297 299 301 300 297 295 294 293 290 288 288
0 32 12 244 353 322 317 342 342 355 129 149 125 138 146 149 155 160 165 173 177 184 186 195 211 234 263 288 301 304 299 300 303 307 309 308 310 309 305 304 300 298 298 300
296 39 3 12 328 337 304 314 331 346 132 157 136 158 155 163 168 171 175 178 182 181 176 182 190 228 277 307 311 302 306 305 309 310 308 311 315 314 312 309 304 298 301 302
289 28 11 64 23 360 347 320 288 299 271 219 205 192 191 183 181 181 179 177 173 166 159 167 213 290 352 344 332 329 330 320 321 317 315 317 317 316 314 309 304 301 297 294
359 354 326 340 349 338 344 340 317 278 268 226 225 213 196 188 187 188 180 174 170 173 170 171 134 354 333 341 355 354 347 340 335 330 322 319 318 314 313 311 308 308 303 296
292 314 297 296 308 347 343 339 326 295 276 253 219 204 194 188 188 188 181 177 171 164 170 174 171 250 271 324 344 340 338 336 332 328 322 322 320 316 312 309 308 307 305 300
281 339 289 356 321 330 333 335 318 267 253 243 225 206 200 198 191 185 181 179 179 180 197 212 231 258 299 313 314 314 313 314 314 312 312 313 313 313 311 310 307 302 298 296
319 318 299 300 311 321 332 331 314 245 235 226 208 210 202 201 193 188 190 197 205 218 233 249 274 297 299 301 303 302 302 302 301 301 301 302 302 302 302 302 302 302 300 295
331 13 30 31 2 349 336 334 306 268 235 206 208 207 202 197 194 198 204 223 238 257 276 285 293 293 294 296 297 296 296 296 295 293 292 292 294 294 296 297 297 298 298 299
20 15 13 4 3 1 345 324 304 284 242 235 216 206 199 198 204 215 231 253 265 276 286 292 293 288 291 294 294 292 292 292 292 289 288 288 288 290 291 291 292 293 294 295
45 9 351 352 354 0 8 35 23 245 209 228 210 201 201 212 233 248 269 283 288 289 291 290 292 293 291 291 289 288 288 288 287 287 285 285 286 286 286 288 289 290 291 291
22 30 29 28 28 38 59 72 64 62 80 121 163 185 217 247 261 274 282 285 290 294 298 296 292 290 290 290 288 287 286 286 286 285 286 286 286 286 286 286 286 286 287 286
64 61 58 56 59 63 64 62 56 58 72 114 177 242 268 280 286 287 286 287 290 294 292 289 290 292 291 289 289 289 290 291 291 290 289 289 289 289 289 288 287 285 285 285
74 69 64 60 57 54 51 45 37 26 11 347 325 310 302 298 295 294 295 295 297 295 295 295 296 296 295 294 292 291 291 291 290 289 290 290 291 290 290 289 287 286 286 286
75 61 45 35 26 19 12 5 354 344 334 325 317 311 305 303 300 297 296 296 297 298 298 297 297 296 294 293 293 294 293 293 294 295 297 297 297 295 293 291 288 287 287 286
38 23 18 13 10 5 356 347 336 328 322 319 315 311 308 306 305 305 306 305 302 300 299 302 302 301 301 301 302 301 301 301 301 301 302 303 303 302 299 295 292 290 289 289
5 2 6 3 351 341 332 328 324 321 317 315 314 312 310 308 305 307 306 307 308 307 308 311 309 308 307 306 305 304 303 302 301 301 301 301 303 305 304 302 298 296 294 292
342 342 337 331 327 323 321 320 319 318 316 315 315 312 311 312 313 316 316 316 315 314 313 313 311 308 306 305 304 302 301 300 300 299 297 297 297 297 298 298 298 298 296 295
324 325 322 322 323 322 322 322 322 322 321 321 325 324 325 325 323 322 323 323 322 319 316 314 311 308 306 304 302 301 301 300 300 300 299 297 296 296 296 296 296 296 297 298
316 316 319 322 322 323 324 324 324 326 328 330 333 335 333 332 331 327 324 321 318 316 314 312 310 309 307 306 304 304 303 303 303 303 302 302 302 303 303 301 300 300 300 300
Wind_Speed_850mb
3 1 7 4 23 32 31 37 20 23 27 3 7 10 17 24 34 42 41 42 40 34 27 22 19 19 20 21 21 22 24 26 27 28 31 34 34 35 34 33 32 30 29 32
6 4 7 9 18 31 39 37 35 4 8 4 7 13 22 30 33 36 41 42 37 32 27 23 23 24 26 27 28 27 27 26 27 29 31 32 35 37 37 36 34 35 33 32
4 1 4 13 22 26 25 26 32 31 14 7 10 9 14 26 37 35 38 38 36 31 26 24 21 20 22 25 28 30 30 30 29 29 30 32 33 36 37 38 39 39 38 39
5 5 9 5 3 3 25 2 16 12 4 1 6 7 10 24 41 38 38 37 34 30 26 23 19 20 23 23 24 25 27 28 29 29 30 32 33 35 36 38 40 42 43 43
7 10 6 4 5 6 3 3 8 12 9 7 1 2 14 29 31 43 42 38 33 28 23 19 18 18 18 18 18 19 21 23 25 27 27 28 29 31 34 36 38 41 43 44
4 7 4 6 9 9 6 2 12 6 13 9 18 12 6 23 33 41 39 34 30 23 17 15 15 14 14 14 15 15 18 21 22 23 23 24 25 27 28 31 32 35 37 39
1 4 7 8 9 8 2 7 6 6 14 16 10 2 15 29 34 37 35 30 22 16 14 13 12 11 12 13 14 15 17 18 19 21 20 20 21 23 24 26 27 28 31 31
0 3 5 2 2 6 5 3 4 3 8 15 8 18 24 29 32 31 26 23 20 18 15 12 10 10 10 11 13 14 15 16 17 17 18 18 19 21 21 22 23 23 24 23
9 7 2 4 2 6 4 6 10 9 7 13 15 16 23 24 24 23 21 19 18 16 14 11 9 6 7 8 10 13 14 14 14 16 17 17 17 18 19 19 19 19 19 19
6 6 10 11 6 12 16 12 12 9 2 10 9 18 19 22 23 23 21 19 16 13 10 7 4 3 3 4 7 10 13 14 14 15 17 18 18 18 19 19 19 18 17 18
3 7 5 17 21 25 19 13 11 8 5 9 10 15 17 23 24 23 22 19 16 12 8 5 2 2 3 4 6 9 11 13 13 14 16 16 17 19 19 19 20 20 18 19
5 15 12 11 29 28 25 22 14 12 9 11 12 17 22 24 24 23 21 19 16 13 9 6 1 2 4 5 8 10 11 12 14 15 16 16 17 17 19 19 19 20 20 21
12 33 28 25 15 22 23 21 16 12 13 11 13 18 24 29 28 27 25 21 15 10 7 5 2 3 7 6 8 10 12 14 15 16 18 19 19 21 21 21 22 21 22 22
10 21 5 10 16 29 20 17 10 10 12 12 13 19 23 24 25 24 19 14 11 9 6 6 7 7 7 10 12 14 17 18 20 21 22 24 25 26 27 29 28 26 27 30
13 33 30 31 22 20 16 13 7 6 9 11 12 16 21 21 21 19 15 12 10 9 9 9 9 11 15 19 23 25 27 29 31 32 32 33 34 35 36 37 38 39 37 34
29 17 14 12 17 17 15 11 6 6 7 10 12 17 20 21 21 18 14 11 11 11 13 16 18 22 26 28 32 35 37 38 41 43 45 44 44 45 46 47 49 49 49 47
12 14 24 27 27 20 14 8 4 5 8 9 12 15 19 20 17 15 12 13 14 16 20 27 28 33 36 37 41 44 46 49 51 52 54 54 55 55 56 58 59 60 60 57
15 13 19 21 25 23 14 6 2 1 1 3 8 11 14 12 12 13 14 18 21 24 26 31 39 45 44 45 48 52 56 58 60 61 60 62 64 65 66 68 70 72 71 69
17 18 20 20 20 18 16 14 12 8 6 3 5 7 8 10 14 18 24 27 32 37 39 43 48 51 53 55 57 59 61 62 63 65 67 71 73 74 76 78 79 80 80 80
27 28 29 29 28 26 22 18 15 11 7 5 4 7 11 16 22 28 35 41 44 47 51 55 58 59 59 59 60 61 64 68 72 76 78 81 84 87 88 89 90 89 88 86
29 29 28 28 27 25 22 20 17 15 13 13 15 19 25 28 34 42 48 53 56 58 59 62 62 59 59 63 69 73 75 77 78 78 80 82 85 87 90 91 90 88 88 87
18 17 18 19 19 19 19 19 20 22 23 24 27 32 37 40 44 48 50 55 58 61 63 65 65 67 70 71 71 70 68 67 65 64 66 68 71 76 80 80 80 79 77 75
12 14 16 17 18 19 21 23 25 28 31 35 40 44 48 52 55 58 64 59 60 61 66 67 63 61 59 59 56 54 53 54 56 57 59 61 64 66 67 68 67 66 65 65
14 15 15 17 22 25 27 31 37 42 46 49 51 55 58 61 60 57 55 57 57 55 54 49 48 49 50 50 50 51 51 53 56 59 61 61 61 60 60 58 57 54 53 52
15 14 18 23 27 31 37 42 47 51 53 53 52 51 50 49 49 47 45 45 44 45 46 44 44 45 49 52 56 60 63 65 66 67 67 68 68 67 66 63 60 56 55 55
16 19 25 31 36 42 47 51 53 54 56 54 45 40 37 37 39 41 41 41 43 45 48 51 54 57 60 62 64 65 66 66 66 65 64 64 63 62 62 60 58 56 54 51
20 26 32 39 45 49 51 53 54 51 45 42 39 35 35 34 35 39 44 49 53 56 58 58 60 60 61 61 61 59 59 58 55 54 53 53 52 51 49 47 45 42 39 38
Wind_Direction_850mb
106 25 309 289 210 198 212 220 209 242 229 117 128 182 172 158 155 163 174 180 180 182 186 198 217 232 240 247 251 257 259 258 257 258 258 257 258 261 262 263 266 264 266 271
215 177 235 241 231 206 212 228 238 98 282 70 87 113 154 177 175 179 185 185 185 190 199 218 234 244 251 255 257 260 264 265 263 262 261 260 256 256 259 262 264 264 263 263
169 168 203 259 235 201 219 231 231 230 224 158 177 146 186 191 187 191 189 190 193 203 215 226 234 244 255 259 262 263 266 267 267 266 263 261 260 261 262 262 262 264 264 265
96 196 232 34 307 345 226 117 267 267 116 290 347 332 241 207 199 191 196 195 196 205 209 216 234 253 262 265 265 266 268 270 270 269 267 266 266 266 265 265 266 267 266 264
213 209 345 134 52 50 169 146 357 288 241 182 239 318 270 234 208 208 196 195 198 198 207 229 250 256 261 263 264 266 270 273 275 276 273 272 272 271 271 270 270 270 270 270
196 239 215 14 23 43 302 345 352 357 304 192 157 209 132 181 189 191 192 190 189 194 213 233 238 246 253 257 265 270 277 282 284 284 283 281 279 277 276 276 276 275 275 274
286 357 76 19 49 43 91 22 355 330 288 263 212 7 136 157 154 164 172 175 181 193 201 213 224 238 246 258 265 278 284 287 288 288 290 290 289 287 286 285 285 282 281 279
333 227 105 100 168 321 349 327 309 288 231 184 125 119 141 149 153 160 168 171 177 186 190 202 222 235 254 268 287 292 293 292 293 297 299 301 300 297 295 294 293 290 288 288
0 32 12 244 353 322 317 342 342 355 129 149 125 138 146 149 155 160 165 173 177 184 186 195 211 234 263 288 301 304 299 300 303 307 309 308 310 309 305 304 300 298 298 300
296 39 3 12 328 337 304 314 331 346 132 157 136 158 155 163 168 171 175 178 182 181 176 182 190 228 277 307 311 302 306 305 309 310 308 311 315 314 312 309 304 298 301 302
289 28 11 64 23 360 347 320 288 299 271 219 205 192 191 183 181 181 179 177 173 166 159 167 213 290 352 344 332 329 330 320 321 317 315 317 317 316 314 309 304 301 297 294
359 354 326 340 349 338 344 340 317 278 268 226 225 213 196 188 187 188 180 174 170 173 170 171 134 354 333 341 355 354 347 340 335 330 322 319 318 314 313 311 308 308 303 296
292 314 297 296 308 347 343 339 326 295 276 253 219 204 194 188 188 188 181 177 171 164 170 174 171 250 271 324 344 340 338 336 332 328 322 322 320 316 312 309 308 307 305 300
281 339 289 356 321 330 333 335 318 267 253 243 225 206 200 198 191 185 181 179 179 180 197 212 231 258 299 313 314 314 313 314 314 312 312 313 313 313 311 310 307 302 298 296
319 318 299 300 311 321 332 331 314 245 235 226 208 210 202 201 193 188 190 197 205 218 233 249 274 297 299 301 303 302 302 302 301 301 301 302 302 302 302 302 302 302 300 295
331 13 30 31 2 349 336 334 306 268 235 206 208 207 202 197 194 198 204 223 238 257 276 285 293 293 294 296 297 296 296 296 295 293 292 292 294 294 296 297 297 298 298 299
20 15 13 4 3 1 345 324 304 284 242 235 216 206 199 198 204 215 231 253 265 276 286 292 293 288 291 294 294 292 292 292 292 289 288 288 288 290 291 291 292 293 294 295
45 9 351 352 354 0 8 35 23 245 209 228 210 201 201 212 233 248 269 283 288 289 291 290 292 293 291 291 289 288 288 288 287 287 285 285 286 286 286 288 289 290 291 291
22 30 29 28 28 38 59 72 64 62 80 121 163 185 217 247 261 274 282 285 290 294 298 296 292 290 290 290 288 287 286 286 286 285 286 286 286 286 286 286 286 286 287 286
64 61 58 56 59 63 64 62 56 58 72 114 177 242 268 280 286 287 286 287 290 294 292 289 290 292 291 289 289 289 290 291 291 290 289 289 289 289 289 288 287 285 285 285
74 69 64 60 57 54 51 45 37 26 11 347 325 310 302 298 295 294 295 295 297 295 295 295 296 296 295 294 292 291 291 291 290 289 290 290 291 290 290 289 287 286 286 286
75 61 45 35 26 19 12 5 354 344 334 325 317 311 305 303 300 297 296 296 297 298 298 297 297 296 294 293 293 294 293 293 294 295 297 297 297 295 293 291 288 287 287 286
38 23 18 13 10 5 356 347 336 328 322 319 315 311 308 306 305 305 306 305 302 300 299 302 302 301 301 301 302 301 301 301 301 301 302 303 303 302 299 295 292 290 289 289
5 2 6 3 351 341 332 328 324 321 317 315 314 312 310 308 305 307 306 307 308 307 308 311 309 308 307 306 305 304 303 302 301 301 301 301 303 305 304 302 298 296 294 292
342 342 337 331 327 323 321 320 319 318 316 315 315 312 311 312 313 316 316 316 315 314 313 313 311 308 306 305 304 302 301 300 300 299 297 297 297 297 298 298 298 298 296 295
324 325 322 322 323 322 322 322 322 322 321 321 325 324 325 325 323 322 323 323 322 319 316 314 311 308 306 304 302 301 301 300 300 300 299 297 296 296 296 296 296 296 297 298
316 316 319 322 322 323 324 324 324 326 328 330 333 335 333 332 331 327 324 321 318 316 314 312 310 309 307 306 304 304 303 303 303 303 302 302 302 303 303 301 300 300 300 300